Year,Month,Day,Hour,Minute,Value (Times are PST for temperature in C)
2009,07,26,00,00,16.70
2009,07,26,00,01,16.70
2009,07,26,00,02,16.70
2009,07,26,00,03,16.70
2009,07,26,00,04,16.70
2009,07,26,00,05,16.70
2009,07,26,00,06,16.70
2009,07,26,00,07,16.70
2009,07,26,00,08,16.70
2009,07,26,00,09,16.70
2009,07,26,00,10,16.70
2009,07,26,00,11,16.70
2009,07,26,00,12,16.70
2009,07,26,00,16,16.80
2009,07,26,00,17,16.80
2009,07,26,00,18,16.80
2009,07,26,00,19,16.80
2009,07,26,00,20,16.80
2009,07,26,00,21,16.80
2009,07,26,00,22,16.80
2009,07,26,00,23,16.90
2009,07,26,00,24,16.90
2009,07,26,00,25,16.90
2009,07,26,00,26,16.90
2009,07,26,00,27,16.90
2009,07,26,00,28,16.90
2009,07,26,00,29,16.90
2009,07,26,00,30,16.90
2009,07,26,00,31,16.90
2009,07,26,00,32,16.90
2009,07,26,00,33,16.90
2009,07,26,00,34,16.90
2009,07,26,00,35,16.90
2009,07,26,00,36,16.90
2009,07,26,00,37,16.90
2009,07,26,00,38,16.90
2009,07,26,00,39,16.90
2009,07,26,00,40,16.90
2009,07,26,00,41,16.90
2009,07,26,00,42,17.00
2009,07,26,00,43,17.00
2009,07,26,00,44,17.00
2009,07,26,00,45,17.00
2009,07,26,00,46,17.00
2009,07,26,00,47,17.00
2009,07,26,00,48,17.00
2009,07,26,00,49,17.10
2009,07,26,00,50,17.10
2009,07,26,00,51,17.10
2009,07,26,00,52,17.20
2009,07,26,00,53,17.20
2009,07,26,00,54,17.20
2009,07,26,00,55,17.20
2009,07,26,00,56,17.20
2009,07,26,00,57,17.20
2009,07,26,00,58,17.20
2009,07,26,00,59,17.30
2009,07,26,01,00,17.30
2009,07,26,01,01,17.30
2009,07,26,01,02,17.30
2009,07,26,01,03,17.30
2009,07,26,01,04,17.30
2009,07,26,01,05,17.40
2009,07,26,01,06,17.40
2009,07,26,01,07,17.50
2009,07,26,01,08,17.50
2009,07,26,01,09,17.50
2009,07,26,01,10,17.50
2009,07,26,01,11,17.60
2009,07,26,01,12,17.60
2009,07,26,01,13,17.60
2009,07,26,01,14,17.60
2009,07,26,01,15,17.60
2009,07,26,01,16,17.60
2009,07,26,01,17,17.60
2009,07,26,01,18,17.60
2009,07,26,01,19,17.60
2009,07,26,01,20,17.60
2009,07,26,01,21,17.60
2009,07,26,01,22,17.60
2009,07,26,01,23,17.60
2009,07,26,01,24,17.60
2009,07,26,01,25,17.60
2009,07,26,01,26,17.60
2009,07,26,01,27,17.60
2009,07,26,01,28,17.60
2009,07,26,01,29,17.60
2009,07,26,01,30,17.60
2009,07,26,01,31,17.60
2009,07,26,01,32,17.60
2009,07,26,01,33,17.60
2009,07,26,01,34,17.60
2009,07,26,01,35,17.60
2009,07,26,01,36,17.60
2009,07,26,01,37,17.60
2009,07,26,01,38,17.60
2009,07,26,01,39,17.60
2009,07,26,01,40,17.60
2009,07,26,01,41,17.60
2009,07,26,01,42,17.60
2009,07,26,01,43,17.60
2009,07,26,01,44,17.60
2009,07,26,01,45,17.60
2009,07,26,01,46,17.60
2009,07,26,01,47,17.60
2009,07,26,01,48,17.60
2009,07,26,01,49,17.60
2009,07,26,01,50,17.60
2009,07,26,01,51,17.60
2009,07,26,01,52,17.60
2009,07,26,01,53,17.60
2009,07,26,01,54,17.60
2009,07,26,01,55,17.60
2009,07,26,01,56,17.60
2009,07,26,01,57,17.60
2009,07,26,01,58,17.60
2009,07,26,01,59,17.60
2009,07,26,02,00,17.60
2009,07,26,02,01,17.60
2009,07,26,02,02,17.60
2009,07,26,02,03,17.60
2009,07,26,02,04,17.60
2009,07,26,02,05,17.60
2009,07,26,02,06,17.60
2009,07,26,02,07,17.60
2009,07,26,02,08,17.50
2009,07,26,02,09,17.50
2009,07,26,02,10,17.50
2009,07,26,02,11,17.50
2009,07,26,02,12,17.50
2009,07,26,02,13,17.50
2009,07,26,02,14,17.50
2009,07,26,02,15,17.50
2009,07,26,02,16,17.50
2009,07,26,02,17,17.50
2009,07,26,02,18,17.50
2009,07,26,02,19,17.50
2009,07,26,02,20,17.50
2009,07,26,02,21,17.50
2009,07,26,02,22,17.50
2009,07,26,02,23,17.50
2009,07,26,02,24,17.50
2009,07,26,02,25,17.50
2009,07,26,02,26,17.50
2009,07,26,02,27,17.50
2009,07,26,02,28,17.50
2009,07,26,02,29,17.50
2009,07,26,02,30,17.50
2009,07,26,02,31,17.60
2009,07,26,02,32,17.60
2009,07,26,02,33,17.60
2009,07,26,02,34,17.60
2009,07,26,02,35,17.60
2009,07,26,02,36,17.60
2009,07,26,02,37,17.60
2009,07,26,02,38,17.70
2009,07,26,02,39,17.70
2009,07,26,02,40,17.70
2009,07,26,02,41,17.70
2009,07,26,02,42,17.70
2009,07,26,02,43,17.70
2009,07,26,02,44,17.80
2009,07,26,02,45,17.80
2009,07,26,02,46,17.80
2009,07,26,02,47,17.80
2009,07,26,02,48,17.80
2009,07,26,02,49,17.80
2009,07,26,02,50,17.80
2009,07,26,02,51,17.80
2009,07,26,02,52,17.80
2009,07,26,02,53,17.80
2009,07,26,02,54,17.80
2009,07,26,02,55,17.80
2009,07,26,02,56,17.80
2009,07,26,02,57,17.90
2009,07,26,02,58,17.90
2009,07,26,02,59,17.90
2009,07,26,03,00,17.90
2009,07,26,03,01,17.90
2009,07,26,03,02,17.90
2009,07,26,03,03,17.90
2009,07,26,03,04,17.90
2009,07,26,03,05,17.90
2009,07,26,03,06,17.90
2009,07,26,03,07,17.90
2009,07,26,03,08,17.90
2009,07,26,03,09,17.90
2009,07,26,03,10,17.90
2009,07,26,03,11,17.90
2009,07,26,03,12,17.90
2009,07,26,03,13,17.90
2009,07,26,03,14,17.90
2009,07,26,03,15,17.90
2009,07,26,03,16,17.90
2009,07,26,03,17,17.90
2009,07,26,03,18,17.90
2009,07,26,03,19,17.90
2009,07,26,03,20,17.90
2009,07,26,03,21,17.90
2009,07,26,03,22,17.90
2009,07,26,03,23,17.90
2009,07,26,03,24,17.90
2009,07,26,03,25,17.90
2009,07,26,03,26,17.90
2009,07,26,03,27,17.90
2009,07,26,03,28,17.80
2009,07,26,03,29,17.80
2009,07,26,03,30,17.80
2009,07,26,03,31,17.80
2009,07,26,03,32,17.80
2009,07,26,03,33,17.80
2009,07,26,03,34,17.80
2009,07,26,03,35,17.80
2009,07,26,03,36,17.80
2009,07,26,03,37,17.70
2009,07,26,03,38,17.70
2009,07,26,03,39,17.70
2009,07,26,03,40,17.70
2009,07,26,03,41,17.70
2009,07,26,03,42,17.70
2009,07,26,03,43,17.60
2009,07,26,03,44,17.60
2009,07,26,03,45,17.60
2009,07,26,03,46,17.60
2009,07,26,03,47,17.60
2009,07,26,03,48,17.60
2009,07,26,03,49,17.60
2009,07,26,03,50,17.50
2009,07,26,03,51,17.50
2009,07,26,03,52,17.50
2009,07,26,03,53,17.50
2009,07,26,03,54,17.50
2009,07,26,03,55,17.50
2009,07,26,03,56,17.50
2009,07,26,03,57,17.50
2009,07,26,03,58,17.50
2009,07,26,03,59,17.50
2009,07,26,04,00,17.50
2009,07,26,04,01,17.50
2009,07,26,04,02,17.50
2009,07,26,04,03,17.50
2009,07,26,04,04,17.50
2009,07,26,04,05,17.50
2009,07,26,04,06,17.40
2009,07,26,04,07,17.40
2009,07,26,04,08,17.40
2009,07,26,04,09,17.40
2009,07,26,04,10,17.40
2009,07,26,04,11,17.40
2009,07,26,04,12,17.40
2009,07,26,04,13,17.40
2009,07,26,04,14,17.40
2009,07,26,04,15,17.40
2009,07,26,04,16,17.40
2009,07,26,04,17,17.40
2009,07,26,04,18,17.40
2009,07,26,04,19,17.30
2009,07,26,04,20,17.30
2009,07,26,04,21,17.30
2009,07,26,04,22,17.30
2009,07,26,04,23,17.30
2009,07,26,04,24,17.30
2009,07,26,04,25,17.30
2009,07,26,04,26,17.30
2009,07,26,04,27,17.30
2009,07,26,04,28,17.30
2009,07,26,04,29,17.30
2009,07,26,04,30,17.30
2009,07,26,04,31,17.30
2009,07,26,04,32,17.30
2009,07,26,04,33,17.30
2009,07,26,04,34,17.30
2009,07,26,04,35,17.30
2009,07,26,04,36,17.30
2009,07,26,04,37,17.30
2009,07,26,04,38,17.30
2009,07,26,04,39,17.30
2009,07,26,04,40,17.30
2009,07,26,04,41,17.30
2009,07,26,04,42,17.30
2009,07,26,04,43,17.30
2009,07,26,04,44,17.30
2009,07,26,04,45,17.30
2009,07,26,04,46,17.30
2009,07,26,04,47,17.30
2009,07,26,04,48,17.30
2009,07,26,04,49,17.30
2009,07,26,04,50,17.30
2009,07,26,04,51,17.30
2009,07,26,04,52,17.30
2009,07,26,04,53,17.30
2009,07,26,04,54,17.30
2009,07,26,04,55,17.30
2009,07,26,04,56,17.30
2009,07,26,04,57,17.30
2009,07,26,04,58,17.30
2009,07,26,04,59,17.30
2009,07,26,05,00,17.30
2009,07,26,05,01,17.30
2009,07,26,05,02,17.30
2009,07,26,05,03,17.30
2009,07,26,05,04,17.30
2009,07,26,05,05,17.30
2009,07,26,05,06,17.30
2009,07,26,05,07,17.30
2009,07,26,05,08,17.30
2009,07,26,05,09,17.20
2009,07,26,05,10,17.20
2009,07,26,05,11,17.20
2009,07,26,05,12,17.20
2009,07,26,05,13,17.20
2009,07,26,05,14,17.20
2009,07,26,05,15,17.20
2009,07,26,05,16,17.20
2009,07,26,05,17,17.20
2009,07,26,05,18,17.20
2009,07,26,05,19,17.20
2009,07,26,05,20,17.20
2009,07,26,05,21,17.20
2009,07,26,05,22,17.20
2009,07,26,05,23,17.20
2009,07,26,05,24,17.20
2009,07,26,05,25,17.20
2009,07,26,05,26,17.20
2009,07,26,05,27,17.10
2009,07,26,05,28,17.10
2009,07,26,05,29,17.10
2009,07,26,05,30,17.10
2009,07,26,05,31,17.10
2009,07,26,05,32,17.10
2009,07,26,05,33,17.10
2009,07,26,05,34,17.10
2009,07,26,05,35,17.10
2009,07,26,05,36,17.10
2009,07,26,05,37,17.10
2009,07,26,05,38,17.10
2009,07,26,05,39,17.10
2009,07,26,05,40,17.10
2009,07,26,05,41,17.10
2009,07,26,05,42,17.10
2009,07,26,05,43,17.10
2009,07,26,05,44,17.00
2009,07,26,05,45,17.00
2009,07,26,05,46,17.00
2009,07,26,05,47,17.00
2009,07,26,05,48,16.90
2009,07,26,05,49,16.90
2009,07,26,05,50,16.90
2009,07,26,05,51,16.80
2009,07,26,05,52,16.80
2009,07,26,05,53,16.80
2009,07,26,05,54,16.80
2009,07,26,05,55,16.80
2009,07,26,05,56,16.70
2009,07,26,05,57,16.70
2009,07,26,05,58,16.70
2009,07,26,05,59,16.70
2009,07,26,06,00,16.70
2009,07,26,06,01,16.70
2009,07,26,06,02,16.70
2009,07,26,06,03,16.70
2009,07,26,06,04,16.70
2009,07,26,06,05,16.70
2009,07,26,06,06,16.70
2009,07,26,06,07,16.70
2009,07,26,06,08,16.70
2009,07,26,06,09,16.70
2009,07,26,06,10,16.70
2009,07,26,06,11,16.70
2009,07,26,06,12,16.70
2009,07,26,06,13,16.80
2009,07,26,06,14,16.80
2009,07,26,06,15,16.80
2009,07,26,06,16,16.80
2009,07,26,06,17,16.80
2009,07,26,06,18,16.80
2009,07,26,06,19,16.80
2009,07,26,06,20,16.80
2009,07,26,06,21,16.90
2009,07,26,06,22,16.90
2009,07,26,06,23,16.90
2009,07,26,06,24,16.90
2009,07,26,06,25,16.90
2009,07,26,06,26,16.90
2009,07,26,06,27,16.90
2009,07,26,06,28,16.90
2009,07,26,06,29,16.90
2009,07,26,06,30,16.90
2009,07,26,06,31,16.90
2009,07,26,06,32,16.90
2009,07,26,06,33,16.90
2009,07,26,06,34,16.90
2009,07,26,06,35,16.90
2009,07,26,06,36,16.80
2009,07,26,06,37,16.80
2009,07,26,06,38,16.80
2009,07,26,06,39,16.80
2009,07,26,06,40,16.80
2009,07,26,06,41,16.80
2009,07,26,06,42,16.80
2009,07,26,06,43,16.80
2009,07,26,06,44,16.80
2009,07,26,06,45,16.80
2009,07,26,06,46,16.80
2009,07,26,06,47,16.80
2009,07,26,06,48,16.80
2009,07,26,06,49,16.80
2009,07,26,06,50,16.80
2009,07,26,06,51,16.80
2009,07,26,06,52,16.80
2009,07,26,06,53,16.80
2009,07,26,06,54,16.80
2009,07,26,06,55,16.80
2009,07,26,06,56,16.90
2009,07,26,06,57,16.90
2009,07,26,06,58,16.90
2009,07,26,06,59,16.90
2009,07,26,07,00,16.90
2009,07,26,07,01,16.90
2009,07,26,07,02,16.90
2009,07,26,07,03,16.90
2009,07,26,07,04,16.90
2009,07,26,07,05,16.90
2009,07,26,07,06,16.90
2009,07,26,07,07,16.90
2009,07,26,07,08,16.90
2009,07,26,07,09,16.90
2009,07,26,07,10,16.90
2009,07,26,07,11,16.90
2009,07,26,07,12,16.90
2009,07,26,07,13,16.90
2009,07,26,07,14,16.90
2009,07,26,07,15,16.80
2009,07,26,07,16,16.80
2009,07,26,07,17,16.80
2009,07,26,07,18,16.80
2009,07,26,07,19,16.80
2009,07,26,07,20,16.80
2009,07,26,07,21,16.80
2009,07,26,07,22,16.80
2009,07,26,07,23,16.80
2009,07,26,07,24,16.80
2009,07,26,07,25,16.80
2009,07,26,07,26,16.80
2009,07,26,07,27,16.80
2009,07,26,07,28,16.90
2009,07,26,07,29,16.90
2009,07,26,07,30,16.90
2009,07,26,07,31,16.90
2009,07,26,07,32,16.90
2009,07,26,07,33,16.90
2009,07,26,07,34,16.90
2009,07,26,07,35,16.90
2009,07,26,07,36,16.90
2009,07,26,07,37,16.90
2009,07,26,07,38,16.90
2009,07,26,07,39,16.90
2009,07,26,07,40,16.90
2009,07,26,07,41,16.90
2009,07,26,07,42,16.90
2009,07,26,07,43,16.90
2009,07,26,07,44,16.90
2009,07,26,07,45,17.00
2009,07,26,07,46,17.00
2009,07,26,07,47,17.00
2009,07,26,07,48,17.00
2009,07,26,07,49,17.00
2009,07,26,07,50,17.00
2009,07,26,07,51,17.00
2009,07,26,07,52,17.00
2009,07,26,07,53,17.00
2009,07,26,07,54,17.00
2009,07,26,07,55,17.00
2009,07,26,07,56,17.10
2009,07,26,07,57,17.10
2009,07,26,07,58,17.10
2009,07,26,07,59,17.20
2009,07,26,08,00,17.30
2009,07,26,08,01,17.30
2009,07,26,08,02,17.40
2009,07,26,08,03,17.40
2009,07,26,08,04,17.50
2009,07,26,08,05,17.50
2009,07,26,08,06,17.50
2009,07,26,08,07,17.60
2009,07,26,08,08,17.60
2009,07,26,08,09,17.60
2009,07,26,08,10,17.50
2009,07,26,08,11,17.60
2009,07,26,08,12,17.60
2009,07,26,08,13,17.60
2009,07,26,08,14,17.60
2009,07,26,08,15,17.60
2009,07,26,08,16,17.60
2009,07,26,08,17,17.50
2009,07,26,08,18,17.50
2009,07,26,08,19,17.60
2009,07,26,08,20,17.60
2009,07,26,08,21,17.60
2009,07,26,08,22,17.60
2009,07,26,08,23,17.70
2009,07,26,08,24,17.70
2009,07,26,08,25,17.80
2009,07,26,08,26,17.80
2009,07,26,08,27,17.90
2009,07,26,08,28,17.90
2009,07,26,08,29,17.90
2009,07,26,08,30,17.90
2009,07,26,08,31,17.90
2009,07,26,08,32,17.90
2009,07,26,08,33,17.90
2009,07,26,08,34,17.90
2009,07,26,08,35,17.90
2009,07,26,08,36,17.90
2009,07,26,08,37,17.90
2009,07,26,08,38,17.90
2009,07,26,08,39,17.90
2009,07,26,08,40,17.90
2009,07,26,08,41,17.90
2009,07,26,08,42,17.90
2009,07,26,08,43,17.90
2009,07,26,08,44,17.90
2009,07,26,08,45,17.90
2009,07,26,08,46,18.00
2009,07,26,08,47,18.10
2009,07,26,08,48,18.10
2009,07,26,08,49,18.10
2009,07,26,08,50,18.20
2009,07,26,08,51,18.20
2009,07,26,08,52,18.20
2009,07,26,08,53,18.20
2009,07,26,08,54,18.30
2009,07,26,08,55,18.30
2009,07,26,08,56,18.40
2009,07,26,08,57,18.40
2009,07,26,08,58,18.40
2009,07,26,08,59,18.40
2009,07,26,09,00,18.40
2009,07,26,09,01,18.40
2009,07,26,09,02,18.40
2009,07,26,09,03,18.40
2009,07,26,09,04,18.40
2009,07,26,09,05,18.50
2009,07,26,09,06,18.50
2009,07,26,09,07,18.60
2009,07,26,09,08,18.70
2009,07,26,09,09,18.80
2009,07,26,09,10,18.90
2009,07,26,09,11,19.00
2009,07,26,09,12,19.10
2009,07,26,09,13,19.20
2009,07,26,09,14,19.30
2009,07,26,09,15,19.40
2009,07,26,09,16,19.50
2009,07,26,09,17,19.60
2009,07,26,09,18,19.70
2009,07,26,09,19,19.80
2009,07,26,09,20,19.90
2009,07,26,09,21,19.90
2009,07,26,09,22,19.90
2009,07,26,09,23,19.90
2009,07,26,09,24,20.10
2009,07,26,09,25,20.10
2009,07,26,09,26,20.00
2009,07,26,09,27,19.90
2009,07,26,09,28,19.90
2009,07,26,09,29,19.90
2009,07,26,09,30,19.80
2009,07,26,09,31,19.80
2009,07,26,09,32,19.70
2009,07,26,09,33,19.70
2009,07,26,09,34,19.60
2009,07,26,09,35,19.60
2009,07,26,09,36,19.50
2009,07,26,09,37,19.50
2009,07,26,09,38,19.50
2009,07,26,09,39,19.50
2009,07,26,09,40,19.40
2009,07,26,09,41,19.50
2009,07,26,09,42,19.50
2009,07,26,09,43,19.50
2009,07,26,09,44,19.40
2009,07,26,09,45,19.40
2009,07,26,09,46,19.40
2009,07,26,09,47,19.30
2009,07,26,09,48,19.30
2009,07,26,09,49,19.30
2009,07,26,09,50,19.30
2009,07,26,09,51,19.30
2009,07,26,09,52,19.30
2009,07,26,09,53,19.40
2009,07,26,09,54,19.40
2009,07,26,09,55,19.40
2009,07,26,09,56,19.50
2009,07,26,09,57,19.50
2009,07,26,09,58,19.60
2009,07,26,09,59,19.60
2009,07,26,10,00,19.70
2009,07,26,10,01,19.70
2009,07,26,10,02,19.70
2009,07,26,10,03,19.70
2009,07,26,10,04,19.70
2009,07,26,10,05,19.80
2009,07,26,10,06,19.80
2009,07,26,10,07,19.80
2009,07,26,10,08,19.80
2009,07,26,10,09,19.90
2009,07,26,10,10,19.90
2009,07,26,10,11,20.00
2009,07,26,10,12,20.10
2009,07,26,10,13,20.10
2009,07,26,10,14,20.20
2009,07,26,10,15,20.20
2009,07,26,10,16,20.20
2009,07,26,10,17,20.10
2009,07,26,10,18,20.10
2009,07,26,10,19,20.00
2009,07,26,10,20,19.90
2009,07,26,10,21,19.90
2009,07,26,10,22,19.90
2009,07,26,10,23,19.90
2009,07,26,10,24,19.90
2009,07,26,10,25,20.00
2009,07,26,10,26,20.10
2009,07,26,10,27,20.20
2009,07,26,10,28,20.20
2009,07,26,10,29,20.00
2009,07,26,10,30,19.90
2009,07,26,10,31,19.80
2009,07,26,10,32,19.60
2009,07,26,10,33,19.50
2009,07,26,10,34,19.40
2009,07,26,10,35,19.30
2009,07,26,10,36,19.20
2009,07,26,10,37,19.10
2009,07,26,10,38,19.10
2009,07,26,10,39,19.10
2009,07,26,10,40,19.20
2009,07,26,10,41,19.30
2009,07,26,10,42,19.30
2009,07,26,10,43,19.30
2009,07,26,10,44,19.40
2009,07,26,10,45,19.40
2009,07,26,10,46,19.40
2009,07,26,10,47,19.40
2009,07,26,10,48,19.50
2009,07,26,10,49,19.70
2009,07,26,10,50,19.80
2009,07,26,10,51,19.90
2009,07,26,10,52,19.90
2009,07,26,10,53,19.90
2009,07,26,10,54,19.80
2009,07,26,10,55,19.80
2009,07,26,10,56,19.70
2009,07,26,10,57,19.70
2009,07,26,10,58,19.70
2009,07,26,10,59,19.70
2009,07,26,11,00,19.60
2009,07,26,11,01,19.60
2009,07,26,11,02,19.60
2009,07,26,11,03,19.70
2009,07,26,11,04,19.80
2009,07,26,11,05,19.90
2009,07,26,11,06,20.00
2009,07,26,11,07,20.20
2009,07,26,11,08,20.20
2009,07,26,11,09,20.30
2009,07,26,11,10,20.30
2009,07,26,11,11,20.30
2009,07,26,11,12,20.20
2009,07,26,11,13,20.20
2009,07,26,11,14,20.30
2009,07,26,11,15,20.30
2009,07,26,11,16,20.40
2009,07,26,11,17,20.40
2009,07,26,11,18,20.50
2009,07,26,11,19,20.60
2009,07,26,11,20,20.70
2009,07,26,11,21,20.70
2009,07,26,11,22,20.80
2009,07,26,11,23,20.90
2009,07,26,11,24,20.90
2009,07,26,11,25,20.90
2009,07,26,11,26,20.90
2009,07,26,11,27,20.90
2009,07,26,11,28,20.90
2009,07,26,11,29,20.90
2009,07,26,11,30,20.90
2009,07,26,11,31,20.90
2009,07,26,11,32,20.90
2009,07,26,11,33,21.00
2009,07,26,11,34,20.90
2009,07,26,11,35,20.90
2009,07,26,11,36,20.90
2009,07,26,11,37,21.00
2009,07,26,11,38,21.00
2009,07,26,11,39,20.90
2009,07,26,11,40,20.90
2009,07,26,11,41,20.80
2009,07,26,11,42,20.80
2009,07,26,11,43,20.80
2009,07,26,11,44,20.80
2009,07,26,11,45,20.80
2009,07,26,11,46,20.70
2009,07,26,11,47,20.70
2009,07,26,11,48,20.70
2009,07,26,11,49,20.70
2009,07,26,11,50,20.70
2009,07,26,11,51,20.80
2009,07,26,11,52,20.80
2009,07,26,11,53,20.80
2009,07,26,11,54,20.80
2009,07,26,11,55,20.90
2009,07,26,11,56,20.90
2009,07,26,11,57,21.00
2009,07,26,11,58,21.00
2009,07,26,11,59,20.90
2009,07,26,12,00,20.90
2009,07,26,12,01,20.90
2009,07,26,12,02,21.00
2009,07,26,12,03,21.00
2009,07,26,12,04,21.00
2009,07,26,12,05,21.10
2009,07,26,12,06,21.10
2009,07,26,12,07,21.10
2009,07,26,12,08,21.20
2009,07,26,12,09,21.30
2009,07,26,12,10,21.30
2009,07,26,12,11,21.30
2009,07,26,12,12,21.30
2009,07,26,12,13,21.40
2009,07,26,12,14,21.40
2009,07,26,12,15,21.40
2009,07,26,12,16,21.40
2009,07,26,12,17,21.40
2009,07,26,12,18,21.30
2009,07,26,12,19,21.40
2009,07,26,12,20,21.50
2009,07,26,12,21,21.60
2009,07,26,12,22,21.60
2009,07,26,12,23,21.60
2009,07,26,12,24,21.60
2009,07,26,12,25,21.40
2009,07,26,12,26,21.40
2009,07,26,12,27,21.40
2009,07,26,12,28,21.50
2009,07,26,12,29,21.60
2009,07,26,12,30,21.60
2009,07,26,12,31,21.60
2009,07,26,12,32,21.70
2009,07,26,12,33,21.80
2009,07,26,12,34,21.80
2009,07,26,12,35,21.90
2009,07,26,12,36,21.90
2009,07,26,12,37,22.00
2009,07,26,12,38,22.00
2009,07,26,12,39,22.00
2009,07,26,12,40,22.00
2009,07,26,12,41,22.00
2009,07,26,12,42,22.00
2009,07,26,12,43,22.00
2009,07,26,12,44,22.00
2009,07,26,12,45,22.10
2009,07,26,12,46,22.10
2009,07,26,12,47,22.20
2009,07,26,12,48,22.30
2009,07,26,12,49,22.30
2009,07,26,12,50,22.40
2009,07,26,12,51,22.40
2009,07,26,12,52,22.40
2009,07,26,12,53,22.50
2009,07,26,12,54,22.50
2009,07,26,12,55,22.50
2009,07,26,12,56,22.50
2009,07,26,12,57,22.60
2009,07,26,12,58,22.60
2009,07,26,12,59,22.60
2009,07,26,13,00,22.60
2009,07,26,13,01,22.60
2009,07,26,13,02,22.60
2009,07,26,13,03,22.70
2009,07,26,13,04,22.80
2009,07,26,13,05,22.90
2009,07,26,13,06,22.90
2009,07,26,13,07,22.80
2009,07,26,13,08,22.80
2009,07,26,13,09,22.80
2009,07,26,13,10,22.80
2009,07,26,13,11,22.90
2009,07,26,13,12,22.90
2009,07,26,13,13,22.80
2009,07,26,13,14,22.80
2009,07,26,13,15,22.80
2009,07,26,13,16,22.80
2009,07,26,13,17,22.80
2009,07,26,13,18,22.90
2009,07,26,13,19,22.90
2009,07,26,13,20,23.10
2009,07,26,13,21,23.10
2009,07,26,13,22,23.20
2009,07,26,13,23,23.20
2009,07,26,13,24,23.20
2009,07,26,13,25,23.30
2009,07,26,13,26,23.30
2009,07,26,13,27,23.30
2009,07,26,13,28,23.30
2009,07,26,13,29,23.30
2009,07,26,13,30,23.30
2009,07,26,13,31,23.30
2009,07,26,13,32,23.20
2009,07,26,13,33,23.20
2009,07,26,13,34,23.20
2009,07,26,13,35,23.20
2009,07,26,13,36,23.20
2009,07,26,13,37,23.20
2009,07,26,13,38,23.30
2009,07,26,13,39,23.40
2009,07,26,13,40,23.60
2009,07,26,13,41,23.70
2009,07,26,13,42,23.80
2009,07,26,13,43,23.90
2009,07,26,13,44,23.90
2009,07,26,13,45,24.00
2009,07,26,13,46,24.10
2009,07,26,13,47,24.10
2009,07,26,13,48,24.20
2009,07,26,13,49,24.30
2009,07,26,13,50,24.40
2009,07,26,13,51,24.50
2009,07,26,13,52,24.60
2009,07,26,13,53,24.50
2009,07,26,13,54,24.40
2009,07,26,13,55,24.30
2009,07,26,13,56,24.30
2009,07,26,13,57,24.30
2009,07,26,13,58,24.30
2009,07,26,13,59,24.40
2009,07,26,14,00,24.40
2009,07,26,14,01,24.40
2009,07,26,14,02,24.30
2009,07,26,14,03,24.30
2009,07,26,14,04,24.30
2009,07,26,14,05,24.30
2009,07,26,14,06,24.30
2009,07,26,14,07,24.30
2009,07,26,14,08,24.30
2009,07,26,14,09,24.30
2009,07,26,14,10,24.40
2009,07,26,14,11,24.50
2009,07,26,14,12,24.60
2009,07,26,14,13,24.70
2009,07,26,14,14,24.80
2009,07,26,14,15,24.80
2009,07,26,14,16,24.80
2009,07,26,14,17,24.70
2009,07,26,14,18,24.70
2009,07,26,14,19,24.70
2009,07,26,14,20,24.70
2009,07,26,14,21,24.80
2009,07,26,14,22,24.80
2009,07,26,14,23,24.80
2009,07,26,14,24,24.90
2009,07,26,14,25,24.90
2009,07,26,14,26,24.80
2009,07,26,14,27,24.80
2009,07,26,14,28,24.80
2009,07,26,14,29,24.70
2009,07,26,14,30,24.70
2009,07,26,14,31,24.60
2009,07,26,14,32,24.60
2009,07,26,14,33,24.70
2009,07,26,14,34,24.70
2009,07,26,14,35,24.80
2009,07,26,14,36,24.90
2009,07,26,14,37,24.90
2009,07,26,14,38,25.00
2009,07,26,14,39,24.90
2009,07,26,14,40,24.90
2009,07,26,14,41,25.00
2009,07,26,14,42,25.00
2009,07,26,14,43,24.90
2009,07,26,14,44,24.80
2009,07,26,14,45,24.90
2009,07,26,14,46,24.90
2009,07,26,14,47,24.90
2009,07,26,14,48,24.80
2009,07,26,14,49,24.80
2009,07,26,14,50,24.70
2009,07,26,14,51,24.70
2009,07,26,14,52,24.80
2009,07,26,14,53,24.90
2009,07,26,14,54,25.00
2009,07,26,14,55,25.00
2009,07,26,14,56,25.10
2009,07,26,14,57,25.10
2009,07,26,14,58,25.20
2009,07,26,14,59,25.30
2009,07,26,15,00,25.30
2009,07,26,15,01,25.40
2009,07,26,15,02,25.60
2009,07,26,15,03,25.70
2009,07,26,15,04,25.90
2009,07,26,15,05,25.90
2009,07,26,15,06,25.90
2009,07,26,15,07,25.90
2009,07,26,15,08,25.80
2009,07,26,15,09,25.80
2009,07,26,15,10,25.70
2009,07,26,15,11,25.70
2009,07,26,15,12,25.70
2009,07,26,15,13,25.70
2009,07,26,15,14,25.60
2009,07,26,15,15,25.50
2009,07,26,15,16,25.50
2009,07,26,15,17,25.50
2009,07,26,15,18,25.40
2009,07,26,15,19,25.40
2009,07,26,15,20,25.20
2009,07,26,15,21,25.10
2009,07,26,15,22,24.90
2009,07,26,15,23,24.80
2009,07,26,15,24,24.70
2009,07,26,15,25,24.60
2009,07,26,15,26,24.50
2009,07,26,15,27,24.40
2009,07,26,15,28,24.30
2009,07,26,15,29,24.20
2009,07,26,15,30,24.20
2009,07,26,15,31,24.10
2009,07,26,15,32,24.10
2009,07,26,15,33,24.10
2009,07,26,15,34,24.10
2009,07,26,15,35,24.10
2009,07,26,15,36,24.10
2009,07,26,15,37,24.30
2009,07,26,15,38,24.40
2009,07,26,15,39,24.50
2009,07,26,15,40,24.60
2009,07,26,15,41,24.70
2009,07,26,15,42,24.80
2009,07,26,15,43,24.80
2009,07,26,15,44,24.90
2009,07,26,15,45,25.00
2009,07,26,15,46,25.00
2009,07,26,15,47,25.00
2009,07,26,15,48,24.90
2009,07,26,15,49,24.80
2009,07,26,15,50,24.60
2009,07,26,15,51,24.50
2009,07,26,15,52,24.40
2009,07,26,15,53,24.40
2009,07,26,15,54,24.50
2009,07,26,15,55,24.50
2009,07,26,15,56,24.50
2009,07,26,15,57,24.50
2009,07,26,15,58,24.50
2009,07,26,15,59,24.40
2009,07,26,16,00,24.30
2009,07,26,16,01,24.20
2009,07,26,16,02,24.20
2009,07,26,16,03,24.10
2009,07,26,16,04,24.20
2009,07,26,16,05,24.20
2009,07,26,16,06,24.20
2009,07,26,16,07,24.10
2009,07,26,16,08,24.10
2009,07,26,16,09,24.10
2009,07,26,16,10,24.20
2009,07,26,16,11,24.20
2009,07,26,16,12,24.30
2009,07,26,16,13,24.40
2009,07,26,16,14,24.50
2009,07,26,16,15,24.50
2009,07,26,16,16,24.70
2009,07,26,16,17,24.80
2009,07,26,16,18,24.80
2009,07,26,16,19,24.90
2009,07,26,16,20,24.90
2009,07,26,16,21,25.00
2009,07,26,16,22,25.00
2009,07,26,16,23,25.10
2009,07,26,16,24,25.20
2009,07,26,16,25,25.30
2009,07,26,16,26,25.40
2009,07,26,16,27,25.70
2009,07,26,16,28,25.90
2009,07,26,16,29,26.00
2009,07,26,16,30,26.20
2009,07,26,16,31,26.30
2009,07,26,16,32,26.30
2009,07,26,16,33,26.40
2009,07,26,16,34,26.40
2009,07,26,16,35,26.40
2009,07,26,16,36,26.50
2009,07,26,16,37,26.60
2009,07,26,16,38,26.60
2009,07,26,16,39,26.60
2009,07,26,16,40,26.50
2009,07,26,16,41,26.40
2009,07,26,16,42,26.20
2009,07,26,16,43,26.10
2009,07,26,16,44,26.00
2009,07,26,16,45,25.90
2009,07,26,16,46,25.80
2009,07,26,16,47,25.70
2009,07,26,16,48,25.60
2009,07,26,16,49,25.50
2009,07,26,16,50,25.50
2009,07,26,16,51,25.50
2009,07,26,16,52,25.40
2009,07,26,16,53,25.40
2009,07,26,16,54,25.40
2009,07,26,16,55,25.40
2009,07,26,16,56,25.50
2009,07,26,16,57,25.60
2009,07,26,16,58,25.60
2009,07,26,16,59,25.60
2009,07,26,17,00,25.60
2009,07,26,17,01,25.70
2009,07,26,17,02,25.80
2009,07,26,17,03,25.90
2009,07,26,17,04,25.90
2009,07,26,17,05,26.00
2009,07,26,17,06,26.00
2009,07,26,17,07,26.00
2009,07,26,17,08,25.90
2009,07,26,17,09,25.90
2009,07,26,17,10,25.80
2009,07,26,17,11,25.70
2009,07,26,17,12,25.70
2009,07,26,17,13,25.60
2009,07,26,17,14,25.60
2009,07,26,17,15,25.60
2009,07,26,17,16,25.70
2009,07,26,17,17,25.70
2009,07,26,17,18,25.60
2009,07,26,17,19,25.60
2009,07,26,17,20,25.60
2009,07,26,17,21,25.60
2009,07,26,17,22,25.60